WEST CAPE MAY - NJ NJ-MESONET current weather conditions

sailwx.info

Wind from 181 at 5 knots gusting 9

Air temperature 25.6° C
Dewpoint 24.4° C

Last reported at 2020-Jul-08 14:00 UTC.
Time now 2020-Jul-08 15:16 UTC

Location: N 38°57' W 074°57'.
View on Google Maps.

See reports from other nearby stations

  
Tides and Currents Weather Stations Pressure Air Temp Water Temp Dewpoint Dewpoint Depression Visibility Wind Speed Wind Dir Waves Ship Positions
date/time (UTC)wind fromknots sea level pressurealtimeterstation pressurevisibilityair tempwater tempwave heightnotes
2020-Jul-08 14:00 181 5 gusting 9 25.6
2020-Jul-08 13:55 186 4 gusting 9 26.1
2020-Jul-08 13:50 162 4 gusting 9 26.1
2020-Jul-08 13:45 186 4 gusting 10 25.6
2020-Jul-08 13:40 182 4 gusting 8 26.1
2020-Jul-08 13:35 172 3 gusting 9 25.6
2020-Jul-08 13:30 191 6 gusting 9 25.6
2020-Jul-08 13:25 172 3 gusting 7 26.1
2020-Jul-08 13:20 184 4 gusting 11 25.6
2020-Jul-08 13:15 178 5 gusting 9 26.1
2020-Jul-08 13:10 156 4 gusting 6 25.6
2020-Jul-08 13:05 138 6 gusting 8 25.6
2020-Jul-08 13:00 150 5 gusting 8 25.6
2020-Jul-08 12:55 183 5 gusting 7 25.6
2020-Jul-08 12:50 148 25.6
2020-Jul-08 12:45 169 3 gusting 6 25.6
2020-Jul-08 12:40 156 4 gusting 6 25.6
2020-Jul-08 12:35 183 3 gusting 6 25.6
2020-Jul-08 12:30 186 4 gusting 4 25.6
2020-Jul-08 12:25 209 2 gusting 4 25.6
2020-Jul-08 12:20 168 3 gusting 6 25.0
2020-Jul-08 12:15 185 4 gusting 5 25.0
2020-Jul-08 12:10 196 2 gusting 6 25.0
2020-Jul-08 12:05 183 4 gusting 6 25.0
2020-Jul-08 12:00 204 4 gusting 6 25.0
2020-Jul-08 11:55 197 4 gusting 7 25.0
2020-Jul-08 11:50 158 2 gusting 4 25.0
2020-Jul-08 11:45 167 2 gusting 4 24.4
2020-Jul-08 11:40 164 2 gusting 5 24.4
2020-Jul-08 11:35 189 1 gusting 4 24.4
2020-Jul-08 11:30 164 0 gusting 4 24.4
2020-Jul-08 11:25 169 2 gusting 5 23.9
2020-Jul-08 11:20 154 3 gusting 4 23.9
2020-Jul-08 11:15 130 1 gusting 4 23.9
2020-Jul-08 11:10 133 4 gusting 6 23.9
2020-Jul-08 11:05 122 23.9
2020-Jul-08 11:00 164 23.3
2020-Jul-08 10:55 184 23.3
2020-Jul-08 10:50 131 1 gusting 4 23.3
2020-Jul-08 10:45 151 2 gusting 4 23.3
2020-Jul-08 10:40 172 1 gusting 3 23.3
2020-Jul-08 10:35 155 3 gusting 3 22.8
2020-Jul-08 10:30 159 22.8
2020-Jul-08 10:25 148 2 gusting 3 22.8
2020-Jul-08 10:20 202 22.8
2020-Jul-08 10:15 158 1 gusting 3 22.8
2020-Jul-08 10:10 154 0 gusting 4 22.8
2020-Jul-08 10:05 166 22.8
2020-Jul-08 10:00 178 22.8
2020-Jul-08 09:55 148 0 gusting 3 22.2
2020-Jul-08 09:50 147 22.2
2020-Jul-08 09:45 154 22.2
2020-Jul-08 09:40 151 0 gusting 2 22.2
2020-Jul-08 09:35 142 22.2
2020-Jul-08 09:30 131 22.2
2020-Jul-08 09:25 149 22.2
2020-Jul-08 09:20 159 22.2
2020-Jul-08 09:15 174 0 gusting 2 22.2
2020-Jul-08 09:10 152 1 gusting 2 22.2
2020-Jul-08 09:05 155 22.2
2020-Jul-08 09:00 136 1 gusting 2 22.2
2020-Jul-08 08:55 163 0 gusting 1 22.2
2020-Jul-08 08:50 134 1 gusting 2 22.2
2020-Jul-08 08:45 159 22.2
2020-Jul-08 08:40 162 1 gusting 2 22.2
2020-Jul-08 08:35 182 22.2
2020-Jul-08 08:30 173 22.2
2020-Jul-08 08:25 159 22.2
2020-Jul-08 08:20 156 22.2
2020-Jul-08 08:15 149 0 gusting 2 22.2
2020-Jul-08 08:10 154 22.2
2020-Jul-08 08:05 145 22.2
2020-Jul-08 08:00 197 22.2
2020-Jul-08 07:55 166 22.2
2020-Jul-08 07:50 157 22.2
2020-Jul-08 07:45 181 22.2
2020-Jul-08 07:40 163 22.2
2020-Jul-08 07:35 160 22.2
2020-Jul-08 07:30 144 0 gusting 3 22.2
2020-Jul-08 07:25 145 22.2
2020-Jul-08 07:20 129 0 gusting 4 22.2
2020-Jul-08 07:15 166 2 gusting 3 22.2
2020-Jul-08 07:10 156 1 gusting 3 22.2
2020-Jul-08 07:05 154 22.2
2020-Jul-08 07:00 151 1 gusting 1 22.2
2020-Jul-08 06:55 154 22.2
2020-Jul-08 06:50 134 2 gusting 4 22.2
2020-Jul-08 06:45 147 1 gusting 3 22.2
2020-Jul-08 06:40 165 1 gusting 2 22.2
2020-Jul-08 06:35 147 1 gusting 2 22.2
2020-Jul-08 06:30 140 22.2
2020-Jul-08 06:25 146 22.2
2020-Jul-08 06:20 176 1 gusting 3 22.2
2020-Jul-08 06:15 147 1 gusting 3 22.2
2020-Jul-08 06:10 160 22.2
2020-Jul-08 06:05 167 22.2
2020-Jul-08 06:00 154 22.2
2020-Jul-08 05:55 145 22.2
2020-Jul-08 05:50 114 1 gusting 4 22.2
2020-Jul-08 05:45 129 0 gusting 3 22.2
2020-Jul-08 05:40 175 22.2
2020-Jul-08 05:35 150 1 gusting 3 22.2
2020-Jul-08 05:30 161 22.2
2020-Jul-08 05:25 159 1 gusting 4 22.2
2020-Jul-08 05:20 152 2 gusting 3 22.2
2020-Jul-08 05:15 146 1 gusting 3 22.2
2020-Jul-08 05:10 165 22.2
2020-Jul-08 05:05 144 22.2
2020-Jul-08 05:00 127 22.2
2020-Jul-08 04:55 169 2 gusting 3 22.2
2020-Jul-08 04:50 133 0 gusting 3 22.2
2020-Jul-08 04:45 131 22.2
2020-Jul-08 04:40 166 1 gusting 3 22.2
2020-Jul-08 04:35 175 2 gusting 4 22.8
2020-Jul-08 04:30 106 22.8
2020-Jul-08 04:25 127 1 gusting 4 22.8
2020-Jul-08 04:20 152 22.8
2020-Jul-08 04:15 153 22.8
2020-Jul-08 04:10 138 3 gusting 4 22.8
2020-Jul-08 04:05 154 2 gusting 4 22.8
2020-Jul-08 04:00 138 1 gusting 4 22.8
2020-Jul-08 03:55 165 2 gusting 4 22.8
2020-Jul-08 03:50 147 1 gusting 4 22.8
2020-Jul-08 03:45 194 2 gusting 5 22.8
2020-Jul-08 03:40 148 1 gusting 4 22.8
2020-Jul-08 03:35 190 1 gusting 4 22.8
2020-Jul-08 03:30 148 22.2
2020-Jul-08 03:25 145 0 gusting 4 22.2
2020-Jul-08 03:20 166 3 gusting 4 22.8
2020-Jul-08 03:15 149 0 gusting 5 22.2
2020-Jul-08 03:10 166 22.8
2020-Jul-08 03:05 150 0 gusting 4 22.8
2020-Jul-08 03:00 182 2 gusting 4 22.8
2020-Jul-08 02:55 168 2 gusting 4 22.8
2020-Jul-08 02:50 129 1 gusting 5 22.8
2020-Jul-08 02:45 153 2 gusting 4 22.8
2020-Jul-08 02:40 138 1 gusting 6 22.8
2020-Jul-08 02:35 138 4 gusting 4 22.8
2020-Jul-08 02:30 156 4 gusting 4 22.2
2020-Jul-08 02:25 166 0 gusting 4 22.8
2020-Jul-08 02:20 135 2 gusting 4 22.8
2020-Jul-08 02:15 185 2 gusting 3 22.8
2020-Jul-08 02:10 163 1 gusting 4 22.8
2020-Jul-08 02:05 191 0 gusting 4 22.8
2020-Jul-08 02:00 177 3 gusting 6 22.8
2020-Jul-08 01:55 161 2 gusting 5 22.8
2020-Jul-08 01:50 174 2 gusting 6 22.8
2020-Jul-08 01:45 164 0 gusting 4 22.8
2020-Jul-08 01:40 164 3 gusting 4 22.8
2020-Jul-08 01:35 134 2 gusting 6 22.8
2020-Jul-08 01:30 149 4 gusting 5 22.8
2020-Jul-08 01:25 177 1 gusting 6 22.8
2020-Jul-08 01:20 135 22.8
2020-Jul-08 01:15 100 2 gusting 6 22.8
2020-Jul-08 01:10 148 3 gusting 6 22.8
2020-Jul-08 01:05 167 4 gusting 6 22.8
2020-Jul-08 01:00 158 2 gusting 6 22.8
2020-Jul-08 00:55 148 3 gusting 7 22.8
2020-Jul-08 00:50 156 3 gusting 4 22.8
2020-Jul-08 00:45 149 1 gusting 6 22.8
2020-Jul-08 00:40 180 4 gusting 6 23.3
2020-Jul-08 00:35 162 4 gusting 6 23.3
2020-Jul-08 00:30 182 2 gusting 7 23.3
2020-Jul-08 00:25 166 4 gusting 5 23.3
2020-Jul-08 00:20 150 2 gusting 5 23.3
2020-Jul-08 00:15 168 3 gusting 6 23.3
2020-Jul-08 00:10 159 1 gusting 6 23.3
2020-Jul-08 00:05 158 1 gusting 6 23.3
2020-Jul-08 00:00 147 2 gusting 6 23.9
2020-Jul-07 23:55 181 4 gusting 8 23.9
2020-Jul-07 23:50 174 5 gusting 9 23.9
2020-Jul-07 23:45 129 3 gusting 7 23.9
2020-Jul-07 23:40 133 4 gusting 9 23.9
2020-Jul-07 23:35 181 3 gusting 7 24.4
2020-Jul-07 23:30 192 1 gusting 6 24.4
2020-Jul-07 23:25 145 4 gusting 7 24.4
2020-Jul-07 23:20 188 4 gusting 8 24.4
2020-Jul-07 23:15 195 3 gusting 7 24.4
2020-Jul-07 23:10 154 6 gusting 8 24.4
2020-Jul-07 23:05 146 6 gusting 7 24.4
2020-Jul-07 23:00 134 4 gusting 7 24.4
2020-Jul-07 22:55 203 8 gusting 8 24.4
2020-Jul-07 22:50 194 4 gusting 6 24.4
2020-Jul-07 22:45 146 4 gusting 8 24.4
2020-Jul-07 22:40 160 0 gusting 8 24.4
2020-Jul-07 22:35 144 4 gusting 7 25.0
2020-Jul-07 22:30 180 4 gusting 8 25.0
2020-Jul-07 22:25 160 6 gusting 7 25.0
2020-Jul-07 22:20 160 5 gusting 7 25.0
2020-Jul-07 22:15 160 8 gusting 8 25.0
2020-Jul-07 22:10 158 3 gusting 8 25.0
2020-Jul-07 22:05 168 4 gusting 8 25.0
2020-Jul-07 22:00 186 4 gusting 6 25.0
2020-Jul-07 21:55 163 4 gusting 7 25.0
2020-Jul-07 21:50 178 3 gusting 7 25.0
2020-Jul-07 21:45 190 4 gusting 9 25.0
2020-Jul-07 21:40 166 4 gusting 6 25.6
2020-Jul-07 21:35 150 0 gusting 7 25.6
2020-Jul-07 21:30 217 4 gusting 8 25.6
2020-Jul-07 21:25 150 3 gusting 6 25.6
2020-Jul-07 21:20 200 4 gusting 9 25.6
2020-Jul-07 21:15 222 3 gusting 6 25.6
2020-Jul-07 21:10 200 1 gusting 6 25.6
2020-Jul-07 21:05 300 26.1
2020-Jul-07 21:00 179 2 gusting 6 26.1
2020-Jul-07 20:55 174 2 gusting 9 26.1
2020-Jul-07 20:50 181 4 gusting 9 25.6
2020-Jul-07 20:45 174 3 gusting 9 26.1
2020-Jul-07 20:40 128 3 gusting 6 26.1
2020-Jul-07 20:35 151 4 gusting 9 26.1
2020-Jul-07 20:30 176 6 gusting 8 26.1
2020-Jul-07 20:25 174 5 gusting 7 26.1
2020-Jul-07 20:20 181 2 gusting 9 26.1
2020-Jul-07 17:05 148 6 gusting 6 25.0
2020-Jul-07 17:00 117 1 gusting 8 24.4
2020-Jul-07 16:55 184 1 gusting 7 24.4
2020-Jul-07 16:50 130 1 gusting 6 23.9
2020-Jul-07 16:45 145 1 gusting 7 23.9
2020-Jul-07 16:40 150 5 gusting 6 23.9
2020-Jul-07 16:35 120 4 gusting 7 23.9
2020-Jul-07 16:30 172 8 gusting 8 23.9
2020-Jul-07 16:25 143 2 gusting 4 24.4
2020-Jul-07 16:20 093 1 gusting 5 24.4
2020-Jul-07 16:15 117 1 gusting 4 23.9
2020-Jul-07 16:10 135 24.4
2020-Jul-07 16:05 162 4 gusting 6 23.9
2020-Jul-07 16:00 175 1 gusting 5 23.9
2020-Jul-07 13:10 325 2 gusting 3 22.8
2020-Jul-07 13:05 206 0 gusting 2 22.8
2020-Jul-07 13:00 174 22.8
2020-Jul-07 12:55 252 22.8
2020-Jul-07 12:50 177 22.8
2020-Jul-07 12:45 102 2 gusting 2 22.8
2020-Jul-07 12:40 123 22.8
2020-Jul-07 12:35 246 23.3
2020-Jul-07 12:30 174 1 gusting 4 23.3
2020-Jul-07 12:25 156 2 gusting 3 22.8
2020-Jul-07 12:20 194 1 gusting 4 22.8
2020-Jul-07 12:15 185 23.3
2020-Jul-07 12:10 185 1 gusting 3 23.3
2020-Jul-07 12:05 135 1 gusting 4 23.3
2020-Jul-07 12:00 165 2 gusting 3 23.3
2020-Jul-07 11:55 158 3 gusting 4 23.3
2020-Jul-07 11:50 146 23.3
2020-Jul-07 11:45 136 1 gusting 4 23.9
2020-Jul-07 11:40 119 3 gusting 5 23.9
2020-Jul-07 11:35 148 2 gusting 4 23.9
2020-Jul-07 11:30 152 0 gusting 6 23.9
2020-Jul-07 11:25 118 4 gusting 6 23.3
2020-Jul-07 11:20 116 3 gusting 5 23.3
2020-Jul-07 11:15 113 2 gusting 4 23.3
2020-Jul-07 11:10 105 1 gusting 4 22.8
2020-Jul-07 11:05 129 1 gusting 5 22.8
2020-Jul-07 11:00 131 3 gusting 4 22.8
2020-Jul-07 10:55 073 22.8
2020-Jul-07 10:50 063 22.8
2020-Jul-07 10:45 088 22.2
2020-Jul-07 10:40 090 22.2
2020-Jul-07 10:35 076 0 gusting 1 21.7
2020-Jul-07 10:30 176 21.7
2020-Jul-07 10:25 176 22.2
2020-Jul-07 10:20 190 21.7
2020-Jul-07 10:15 168 21.7
2020-Jul-07 10:10 156 21.7
2020-Jul-07 10:05 156 21.7
2020-Jul-07 10:00 156 21.7
2020-Jul-07 09:55 156 21.7
2020-Jul-07 09:50 173 21.7
2020-Jul-07 09:45 154 21.7
2020-Jul-07 09:40 154 21.7
2020-Jul-07 09:35 154 21.7
2020-Jul-07 09:30 154 21.7
2020-Jul-07 09:25 108 21.7
2020-Jul-07 09:20 147 21.7
2020-Jul-07 09:15 173 21.1
2020-Jul-07 09:10 156 21.1
2020-Jul-07 09:05 166 21.1
2020-Jul-07 09:00 191 21.7
2020-Jul-07 08:55 149 21.1
2020-Jul-07 08:50 045 21.7
2020-Jul-07 08:45 036 21.1
2020-Jul-07 08:40 036 21.1
2020-Jul-07 08:35 042 21.7
2020-Jul-07 08:30 093 21.7
2020-Jul-07 08:25 093 21.7
2020-Jul-07 08:20 093 21.7
2020-Jul-07 08:15 110 21.7
2020-Jul-07 08:10 133 21.7
2020-Jul-07 08:05 133 21.7
2020-Jul-07 08:00 133 21.7
2020-Jul-07 07:55 125 21.7
2020-Jul-07 07:50 160 21.7
2020-Jul-07 07:45 160 21.7
2020-Jul-07 07:40 257 21.7
2020-Jul-07 07:35 173 21.7
2020-Jul-07 07:30 173 21.7
2020-Jul-07 07:25 174 21.7
2020-Jul-07 07:20 126 21.7
2020-Jul-07 07:15 159 21.7
2020-Jul-07 07:10 081 21.7
2020-Jul-07 07:05 091 21.7
2020-Jul-07 07:00 091 21.7
2020-Jul-07 06:55 086 21.7
2020-Jul-07 06:50 129 0 gusting 2 21.7
2020-Jul-07 06:45 084 21.7
2020-Jul-07 06:40 086 21.7
2020-Jul-07 06:35 074 21.7
2020-Jul-07 06:30 034 0 gusting 1 21.7
2020-Jul-07 06:25 167 21.7
2020-Jul-07 06:20 167 21.7
2020-Jul-07 06:15 066 21.7
2020-Jul-07 06:10 114 1 gusting 2 21.7
2020-Jul-07 06:05 091 0 gusting 2 21.7
2020-Jul-07 06:00 059 21.7
2020-Jul-07 05:55 058 0 gusting 2 21.7
2020-Jul-07 05:50 088 22.2
2020-Jul-07 05:45 128 22.2
2020-Jul-07 05:40 141 22.2
2020-Jul-07 05:35 144 1 gusting 4 22.2
2020-Jul-07 05:30 221 0 gusting 3 21.7
2020-Jul-07 05:25 256 21.7
2020-Jul-07 05:20 151 21.7
2020-Jul-07 05:15 274 2 gusting 4 22.2
2020-Jul-07 05:10 173 1 gusting 5 22.2
2020-Jul-07 05:05 239 22.2
2020-Jul-07 05:00 259 1 gusting 5 21.7
2020-Jul-07 04:55 269 1 gusting 6 21.7
2020-Jul-07 04:50 231 21.7
2020-Jul-07 04:45 217 21.7
2020-Jul-07 04:40 139 0 gusting 5 21.7
2020-Jul-07 04:35 277 3 gusting 10 21.7
2020-Jul-07 04:30 163 3 gusting 6 21.7
2020-Jul-07 04:25 280 0 gusting 4 21.7
2020-Jul-07 04:20 327 0 gusting 6 21.7
2020-Jul-07 04:15 175 6 gusting 6 21.7
2020-Jul-07 04:10 186 4 gusting 6 21.1
2020-Jul-07 04:05 269 1 gusting 7 21.1
2020-Jul-07 04:00 344 1 gusting 9 21.1
2020-Jul-07 03:55 230 4 gusting 7 21.1
2020-Jul-07 03:50 242 21.1
2020-Jul-07 03:45 265 4 gusting 7 21.1
2020-Jul-07 03:40 271 4 gusting 7 21.1
2020-Jul-07 03:35 174 3 gusting 8 21.1
2020-Jul-07 03:30 274 4 gusting 6 21.1
2020-Jul-07 03:25 292 4 gusting 7 21.1
2020-Jul-07 03:20 301 5 gusting 11 21.1
2020-Jul-07 03:15 314 6 gusting 10 21.1
2020-Jul-07 03:10 304 4 gusting 11 21.1
2020-Jul-07 03:05 276 6 gusting 12 21.1
2020-Jul-07 03:00 297 2 gusting 11 21.1
2020-Jul-07 02:55 298 4 gusting 10 21.7
2020-Jul-07 02:50 218 2 gusting 6 20.6
2020-Jul-07 02:45 242 0 gusting 4 20.6
2020-Jul-07 02:40 267 4 gusting 4 20.6
2020-Jul-07 02:35 275 3 gusting 3 20.6
2020-Jul-07 02:30 306 20.6
2020-Jul-07 02:25 252 20.6
2020-Jul-07 02:20 184 1 gusting 3 20.6
2020-Jul-07 02:15 279 2 gusting 4 20.6
2020-Jul-07 02:10 277 1 gusting 2 20.6
2020-Jul-07 02:05 321 20.6
2020-Jul-07 02:00 042 1 gusting 5 20.6
2020-Jul-07 01:55 340 20.6
2020-Jul-07 01:50 351 4 gusting 7 20.6
2020-Jul-07 01:45 039 4 gusting 8 20.6
2020-Jul-07 01:40 055 5 gusting 6 20.6
2020-Jul-07 01:35 001 2 gusting 4 20.6
2020-Jul-07 01:30 016 2 gusting 4 20.6
2020-Jul-07 01:25 042 2 gusting 5 21.1
2020-Jul-07 01:20 040 3 gusting 5 21.1
2020-Jul-07 01:15 058 0 gusting 4 21.1
2020-Jul-07 01:10 044 3 gusting 4 21.7
2020-Jul-07 01:05 045 2 gusting 6 21.7
2020-Jul-07 01:00 078 3 gusting 6 21.7
2020-Jul-07 00:55 060 2 gusting 6 21.7
2020-Jul-07 00:50 093 1 gusting 6 22.2
2020-Jul-07 00:45 115 5 gusting 9 22.2
2020-Jul-07 00:40 102 4 gusting 9 22.2
2020-Jul-07 00:35 066 2 gusting 9 22.2
2020-Jul-07 00:30 136 4 gusting 7 22.2
2020-Jul-07 00:25 086 3 gusting 7 22.8
2020-Jul-07 00:20 073 3 gusting 7 22.2
2020-Jul-07 00:15 099 5 gusting 10 22.2
2020-Jul-07 00:10 085 9 gusting 9 22.2
2020-Jul-07 00:05 075 6 gusting 8 22.8
2020-Jul-07 00:00 103 5 gusting 10 22.8
2020-Jul-06 23:55 097 3 gusting 7 22.8
2020-Jul-06 23:50 113 5 gusting 10 23.3
2020-Jul-06 23:45 092 6 gusting 13 23.3
2020-Jul-06 23:40 122 8 gusting 13 23.9
2020-Jul-06 23:35 077 9 gusting 17 23.9
2020-Jul-06 23:30 097 10 gusting 15 23.9
2020-Jul-06 23:25 131 5 gusting 15 23.9
2020-Jul-06 23:20 122 15 gusting 19 23.9
2020-Jul-06 23:15 105 11 gusting 18 23.9
2020-Jul-06 23:10 100 10 gusting 18 23.9
2020-Jul-06 23:05 110 9 gusting 15 24.4
2020-Jul-06 23:00 119 11 gusting 22 23.9
2020-Jul-06 22:55 112 4 gusting 18 23.9
2020-Jul-06 22:50 095 9 gusting 16 23.9
2020-Jul-06 22:45 103 9 gusting 18 23.3
2020-Jul-06 22:40 094 8 gusting 19 23.3
2020-Jul-06 22:35 043 4 gusting 16 22.8
2020-Jul-06 22:30 105 13 gusting 18 22.8
2020-Jul-06 22:25 108 11 gusting 13 22.2
2020-Jul-06 22:20 073 8 gusting 22 22.2
2020-Jul-06 22:15 112 17 gusting 17 22.8
2020-Jul-06 22:10 082 5 gusting 16 22.8
2020-Jul-06 22:05 101 18 gusting 18 22.2
2020-Jul-06 22:00 078 7 gusting 13 22.2
2020-Jul-06 21:55 097 4 gusting 15 22.8
2020-Jul-06 21:50 061 12 gusting 19 23.3
2020-Jul-06 21:45 068 13 gusting 14 25.6
2020-Jul-06 21:40 054 9 gusting 15 25.6
2020-Jul-06 21:35 070 7 gusting 16 25.6
2020-Jul-06 21:30 082 4 gusting 8 26.1
2020-Jul-06 21:25 162 5 gusting 12 26.1
2020-Jul-06 21:20 132 8 gusting 16 26.7
2020-Jul-06 21:15 197 10 gusting 18 26.7
2020-Jul-06 21:10 175 5 gusting 14 27.2
2020-Jul-06 21:05 171 5 gusting 13 26.1
2020-Jul-06 21:00 171 12 gusting 15 26.1
2020-Jul-06 20:55 159 12 gusting 19 25.6
2020-Jul-06 20:50 168 6 gusting 18 26.1
2020-Jul-06 20:45 170 13 gusting 21 26.1
2020-Jul-06 20:40 176 13 gusting 26 26.1
2020-Jul-06 20:35 170 13 gusting 21 25.6
2020-Jul-06 20:30 164 12 gusting 19 26.1
2020-Jul-06 20:25 256 7 gusting 19 25.0
2020-Jul-06 20:20 209 13 gusting 23 25.6
2020-Jul-06 20:15 199 15 gusting 24 26.7
2020-Jul-06 20:10 178 9 gusting 22 25.6
2020-Jul-06 20:05 206 3 gusting 19 25.6
2020-Jul-06 20:00 149 8 gusting 19 24.4
2020-Jul-06 19:55 169 6 gusting 21 25.6
2020-Jul-06 19:50 187 6 gusting 15 27.8
2020-Jul-06 19:45 155 8 gusting 9 28.3
2020-Jul-06 19:40 149 5 gusting 17 28.3
2020-Jul-06 19:35 187 6 gusting 13 27.8
2020-Jul-06 19:30 172 10 gusting 10 27.2
2020-Jul-06 19:25 150 2 gusting 10 26.7
2020-Jul-06 19:20 183 5 gusting 11 26.7
2020-Jul-06 19:15 162 3 gusting 9 26.7
2020-Jul-06 19:10 199 4 gusting 9 26.7
2020-Jul-06 19:05 164 4 gusting 9 26.7
2020-Jul-06 19:00 158 4 gusting 10 27.2
2020-Jul-06 18:55 173 6 gusting 9 27.2
2020-Jul-06 18:50 153 6 gusting 11 27.8
2020-Jul-06 18:45 161 2 gusting 13 27.8
2020-Jul-06 18:40 165 5 gusting 11 27.8
2020-Jul-06 18:35 179 6 gusting 11 27.8
2020-Jul-06 18:30 170 2 gusting 9 28.3
2020-Jul-06 18:25 178 3 gusting 11 27.8
2020-Jul-06 18:20 176 5 gusting 9 27.8
2020-Jul-06 18:15 157 5 gusting 11 27.2
2020-Jul-06 18:10 134 5 gusting 11 27.2
2020-Jul-06 18:05 213 2 gusting 9 27.8
2020-Jul-06 18:00 166 4 gusting 9 28.3
2020-Jul-06 17:55 192 1 gusting 8 28.3
2020-Jul-06 17:50 153 0 gusting 9 28.3
2020-Jul-06 17:45 192 8 gusting 8 27.8
2020-Jul-06 17:40 224 4 gusting 8 27.2
2020-Jul-06 17:35 185 5 gusting 10 27.2
2020-Jul-06 17:30 169 3 gusting 7 27.8
2020-Jul-06 17:25 176 4 gusting 9 28.3
2020-Jul-06 17:20 156 6 gusting 9 28.3
2020-Jul-06 17:15 157 3 gusting 8 28.3
2020-Jul-06 17:10 166 4 gusting 9 28.3
2020-Jul-06 17:05 201 3 gusting 9 28.3
2020-Jul-06 17:00 222 5 gusting 7 28.3
2020-Jul-06 16:55 177 2 gusting 8 27.8
2020-Jul-06 16:50 123 5 gusting 8 27.2
2020-Jul-06 16:45 159 4 gusting 7 27.8
2020-Jul-06 16:40 164 3 gusting 8 28.3
2020-Jul-06 16:35 134 2 gusting 8 27.8
2020-Jul-06 16:30 190 5 gusting 9 27.8
2020-Jul-06 16:25 138 4 gusting 6 27.8
2020-Jul-06 16:20 180 2 gusting 6 28.3
2020-Jul-06 16:15 153 6 gusting 8 27.8
2020-Jul-06 16:10 169 6 gusting 8 27.8
2020-Jul-06 16:05 214 3 gusting 6 28.3
2020-Jul-06 16:00 135 3 gusting 6 28.3
2020-Jul-06 15:55 211 3 gusting 6 27.8
2020-Jul-06 15:50 186 5 gusting 7 27.8
2020-Jul-06 15:45 220 2 gusting 6 27.8
2020-Jul-06 15:40 185 3 gusting 8 27.2
2020-Jul-06 15:35 142 4 gusting 6 28.3
2020-Jul-06 15:30 186 4 gusting 6 28.3
2020-Jul-06 15:25 175 3 gusting 4 28.3
2020-Jul-06 15:20 154 3 gusting 5 28.3
2020-Jul-06 15:15 226 3 gusting 5 28.3
2020-Jul-06 15:10 230 0 gusting 4 28.3
2020-Jul-06 15:05 230 3 gusting 6 28.3
2020-Jul-06 15:00 238 3 gusting 6 28.9